This is the latest recevied weather packets stored in our database for station/object VK3AFQ-13. If no packets are shown the sender has not sent any weather packets the latest 10 day(s).
| Time | Temp. | Humidity | Pressure | Rain* | Wind** | Luminosity | Snow |
|---|---|---|---|---|---|---|---|
| 1777897864 | 11.67° C | 91% | 1017.8 hPa | - | - | - | - |
| 1777896963 | 11.67° C | 91% | 1017.7 hPa | - | - | - | - |
| 1777896062 | 12.22° C | 90% | 1017.7 hPa | - | - | - | - |
| 1777895163 | 12.22° C | 91% | 1017.6 hPa | - | - | - | - |
| 1777894264 | 12.22° C | 93% | 1017.4 hPa | - | - | - | - |
| 1777893364 | 11.67° C | 93% | 1017.2 hPa | - | - | - | - |
| 1777892462 | 11.67° C | 93% | 1017 hPa | - | - | - | - |
| 1777891564 | 12.22° C | 93% | 1016.7 hPa | - | - | - | - |
| 1777890663 | 12.22° C | 93% | 1016.5 hPa | - | - | - | - |
| 1777889764 | 12.22° C | 93% | 1016.3 hPa | - | - | - | - |
| 1777888862 | 12.22° C | 93% | 1016.2 hPa | - | - | - | - |
| 1777887963 | 12.22° C | 93% | 1016 hPa | - | - | - | - |
| 1777887064 | 12.22° C | 94% | 1015.9 hPa | - | - | - | - |
| 1777886164 | 12.22° C | 94% | 1015.6 hPa | - | - | - | - |
| 1777885263 | 12.22° C | 94% | 1015.2 hPa | - | - | - | - |
| 1777884365 | 12.22° C | 93% | 1015.1 hPa | - | - | - | - |
| 1777883464 | 12.22° C | 93% | 1014.9 hPa | - | - | - | - |
| 1777882563 | 12.22° C | 93% | 1014.5 hPa | - | - | - | - |
| 1777881662 | 12.22° C | 93% | 1014.3 hPa | - | - | - | - |
| 1777880764 | 11.67° C | 92% | 1014.2 hPa | - | - | - | - |
| 1777879864 | 12.22° C | 91% | 1013.7 hPa | - | - | - | - |
| 1777878963 | 12.22° C | 88% | 1013.4 hPa | - | - | - | - |
| 1777878062 | 15.56° C | 81% | 1013.8 hPa | - | - | - | - |
| 1777877164 | 16.67° C | 75% | 1013 hPa | - | - | - | - |
| 1777876264 | 16.67° C | 77% | 1012.9 hPa | - | - | - | - |
* Rain since midnight (hover to see other rain measurements)
** Current wind speed in m/s (hover to see current wind gust speed)